Kinston, NC

8:13 AM EDT on July 23, 2017 (GMT -0400)
Kinston Regional Jetport / Stallings Field

Weather History for KISO - November, 2013

Change the Weather History Date:

Friday, November 15, 2013

  Actual Average Record
Temperature  
Mean Temperature 46 °F -  
Max Temperature 67 °F 62 °F 86 °F (1993)
Min Temperature 27 °F 42 °F 26 °F (2014)
Degree Days  
Heating Degree Days 18    
Moisture  
Dew Point 38 °F    
Average Humidity 78    
Maximum Humidity 93    
Minimum Humidity 39    
Precipitation  
Precipitation 0.00 in - - ()
Sea Level Pressure  
Sea Level Pressure 30.31 in    
Wind  
Wind Speed 1 mph (SE)    
Max Wind Speed 5 mph    
Max Gust Speed -    
Visibility 10 miles    
Events Rain    
Averages and records for this station are not official NWS values.
T = Trace of Precipitation, MM = Missing Value Source: NWS Daily Summary

Daily Weather History Graph

Daily Weather History Graph

Search for Another Location

Airport or City:

Trip Planner

Search our weather history database for the weather conditions in past years. The results will help you decide how hot, cold, wet, or windy it might be!

Date:

Astronomy

Nov. 15, 2013 Rise Set
Actual Time 6:45 AM EST 5:04 PM EST
Civil Twilight 6:18 AM EST 5:31 PM EST
Nautical Twilight 5:48 AM EST 6:01 PM EST
Astronomical Twilight 5:17 AM EST 6:31 PM EST
Moon 3:56 PM EST (11/15) 4:44 AM EST (11/15)
Length of Visible Light 11h 12m
Length of Day
10h 18m
Waxing Gibbous, 96% of the Moon is Illuminated
Nov 15
Waxing Gibbous
Nov 17
Full
Nov 25
Last Quarter
Dec 2
New
Dec 9
First Quarter

Hourly Weather History & Observations

Time (EST) Temp. Dew Point Humidity Pressure Visibility Wind Dir Wind Speed Gust Speed Precip Events Conditions
12:15 AM 29.1 °F 26.8 °F 91% 30.38 in 10.0 mi Calm Calm - N/A   Clear
12:35 AM 30.4 °F 28.0 °F 91% 30.37 in 10.0 mi Calm Calm - N/A   Clear
12:55 AM 29.8 °F 27.5 °F 91% 30.37 in 10.0 mi Calm Calm - N/A   Clear
1:15 AM 30.2 °F 27.3 °F 89% 30.37 in 10.0 mi Calm Calm - N/A   Clear
1:55 AM 30.0 °F 27.7 °F 91% 30.36 in 10.0 mi Calm Calm - N/A   Clear
2:15 AM 29.3 °F 26.8 °F 90% 30.36 in 10.0 mi Calm Calm - N/A   Clear
2:35 AM 29.3 °F 26.6 °F 90% 30.36 in 10.0 mi Calm Calm - N/A   Clear
2:55 AM 29.3 °F 27.0 °F 91% 30.35 in 10.0 mi Calm Calm - N/A   Clear
3:15 AM 27.5 °F 25.5 °F 92% 30.35 in 10.0 mi Calm Calm - N/A   Clear
3:35 AM 28.2 °F 25.7 °F 90% 30.35 in 10.0 mi Calm Calm - N/A   Clear
3:55 AM 29.3 °F 27.5 °F 93% 30.35 in 10.0 mi Calm Calm - N/A   Clear
4:15 AM 29.3 °F 27.1 °F 92% 30.35 in 10.0 mi Calm Calm - N/A   Clear
4:35 AM 30.0 °F 27.9 °F 92% 30.36 in 10.0 mi Calm Calm - N/A   Clear
4:55 AM 29.7 °F 27.5 °F 92% 30.36 in 10.0 mi Calm Calm - N/A   Clear
5:15 AM 30.2 °F 27.7 °F 90% 30.36 in 10.0 mi Calm Calm - N/A   Clear
5:35 AM 30.0 °F 27.3 °F 90% 30.36 in 10.0 mi Calm Calm - N/A   Clear
5:55 AM 30.2 °F 27.5 °F 90% 30.36 in 10.0 mi Calm Calm - N/A   Clear
6:56 AM 30.2 °F 28.4 °F 93% 30.37 in 10.0 mi Calm Calm - N/A   Clear
7:56 AM 33.8 °F 32.0 °F 93% 30.38 in 10.0 mi Calm Calm - N/A   Clear
8:56 AM 46.4 °F 37.4 °F 71% 30.39 in 10.0 mi Calm Calm - N/A   Clear
9:56 AM 51.8 °F 39.2 °F 62% 30.38 in 10.0 mi Calm Calm - N/A   Clear
10:56 AM 60.8 °F 35.6 °F 39% 30.37 in 10.0 mi Calm Calm - N/A   Clear
11:56 AM 64.4 °F 39.2 °F 40% 30.34 in 10.0 mi SE 3.5 mph - N/A   Clear
12:56 PM 64.4 °F 41.0 °F 42% 30.29 in 10.0 mi Calm Calm - N/A   Clear
1:56 PM 66.2 °F 44.6 °F 46% 30.27 in 10.0 mi SE 4.6 mph - N/A   Clear
2:56 PM - - N/A% 30.26 in 10.0 mi SSE 4.6 mph - N/A   Clear
3:56 PM 66.2 °F 48.2 °F 52% 30.25 in 10.0 mi SSE 3.5 mph - N/A   Clear
4:56 PM 64.4 °F 48.2 °F 56% 30.25 in 10.0 mi SE 4.6 mph - N/A   Scattered Clouds
5:56 PM 60.8 °F 50.0 °F 68% 30.24 in 10.0 mi Calm Calm - N/A   Scattered Clouds
6:56 PM 59.0 °F 50.0 °F 72% 30.24 in 10.0 mi ESE 3.5 mph - N/A   Scattered Clouds
8:15 PM 59.4 °F 50.2 °F 72% 30.25 in 10.0 mi Calm Calm - N/A   Mostly Cloudy
8:35 PM 58.5 °F 50.9 °F 76% 30.25 in 10.0 mi Calm Calm - N/A   Mostly Cloudy
8:55 PM 57.6 °F 50.9 °F 78% 30.25 in 10.0 mi Calm Calm - N/A   Mostly Cloudy
9:15 PM 58.3 °F 50.7 °F 76% 30.25 in 10.0 mi Calm Calm - N/A   Mostly Cloudy
9:35 PM 58.6 °F 50.5 °F 74% 30.25 in 10.0 mi Calm Calm - N/A   Mostly Cloudy
9:55 PM 58.3 °F 50.4 °F 75% 30.25 in 10.0 mi Calm Calm - N/A   Mostly Cloudy
10:15 PM 59.4 °F 50.2 °F 72% 30.25 in 10.0 mi East 4.6 mph - N/A   Scattered Clouds
10:35 PM 59.0 °F 50.5 °F 73% 30.24 in 10.0 mi ESE 4.6 mph - N/A   Scattered Clouds
10:55 PM 59.2 °F 51.4 °F 75% 30.24 in 10.0 mi ESE 4.6 mph - N/A Rain Light Rain
11:15 PM 59.0 °F 52.0 °F 78% 30.25 in 10.0 mi SSE 4.6 mph - N/A Rain Light Rain
11:35 PM 58.8 °F 52.7 °F 80% 30.25 in 10.0 mi Calm Calm - N/A Rain Light Rain
11:55 PM 58.3 °F 53.6 °F 84% 30.25 in 10.0 mi Calm Calm - N/A   Clear